Other Surface Observations
Issued by NWS Tucson, AZ

Home | Current Version | Previous Version | Text Only | Print | Product List | Glossary On
Versions: 1 2 3 4 5 6 7 8 9 10 11 12 13 14 15 16 17 18 19 20 21 22 23 24 25 26 27 28 29 30 31 32 33 34 35 36 37 38 39 40 41 42 43 44 45 46 47 48 49 50
000
SXUS55 KTWC 310515
OSOTWC

WEATHER ROUNDUP FOR SOUTHEAST ARIZONA
NATIONAL WEATHER SERVICE TUCSON AZ
1015 PM MST SAT JUL 30 2016

AZZ504>506-514-310615-
LOCATION       SKY/WX    TMP DP  RH WIND       PRES   REMARKS
TUCSON         MOCLDY    76  65  68 VRB3      29.99R
DAVIS-MONTHAN  PTCLDY    74  66  75 SW3       29.98R
CHILDRENS PARK N/A      N/A N/A  73 S4                PIMA CO DEQ
ALVERNON/22ND  N/A       77 N/A N/A SW6               PIMA CO DEQ
CHERRY/GLENN   N/A      N/A N/A N/A N/A               PIMA CO DEQ
TANGERINE      N/A       85 N/A N/A S10               PIMA CO DEQ
CONTL RANCH    N/A       87  58  38 S11               PIMA CO DEQ
GRANT/1ST      N/A       76  66  71 S5                PIMA CO DEQ
CRAYCROFT/22ND N/A       76  67  75 SW5               PIMA CO DEQ
GOLFLINKS/KOLB N/A      N/A N/A N/A N/A               PIMA CO DEQ
AJO/12TH       N/A       75  69  81 SW10              PIMA CO DEQ
SAGUARO EAST   N/A       24  17  75 N4                PIMA CO DEQ
FAIRGROUNDS    N/A       73 N/A N/A N/A               PIMA CO DEQ
SAGUARO        N/A       75  64  69 W5G13             *SABINO CYN
SAN CARLOS     N/A       71  65  81 NE9G22            *SAN CARLOS
GREEN VALLEY   N/A       71  66  84 S1                PIMA CO DEQ
HORSE CAMP CYN N/A       79  60  52 NW5G14            *ARAVAIPA CYN
RINCON MTNS    N/A       59  53  81 NE3               *NR MANNING CAMP
$$

AZZ509>511-310615-
LOCATION       SKY/WX    TMP DP  RH WIND       PRES   REMARKS
SAFFORD        CLOUDY    78  60  53 NW20      29.95R
STRAY HORSE    N/A       63  40  43 E3G10             *
TRAIL CABIN    N/A       69  50  51 SE4               *N OF GRANVILLE
BLACK HILLS    NOT AVBL
DRY LAKE       N/A       63  48  59 N3                *NATANES MTNS
NOON CREEK     N/A       78  56  46 SW3               *PINALENO MTNS
COLUMBINE      N/A       56  51  84 NE3               *PINALENO MTNS
GUTHRIE        N/A       74  50  43 N9G16             *SW OF GUTHRIE
$$

AZZ502-503-513-310615-
LOCATION       SKY/WX    TMP DP  RH WIND       PRES   REMARKS
NOGALES        MOCLDY    74  70  87 SW9       30.06R
SELLS          N/A       82  69  65 NE9G14            *
SASABE         N/A       72  66  81 NE11G24           *ALTAR VLY
HOPKINS        N/A       64  60  87 W3G13             *SANTA RITA MTNS
CARR CYN       N/A       71  58  64 SW2               *W OF HEREFORD
$$

AZZ507-508-512-310615-
LOCATION       SKY/WX    TMP DP  RH WIND       PRES   REMARKS
SIERRA VISTA   CLOUDY    74  62  65 NW9       30.10R
DOUGLAS        CLOUDY    73  60  63 NW10      30.05R
EMPIRE MTNS    NOT AVBL
MULESHOE RANCH N/A       69  65  88 NW2               *PRESERVE
HEADQUARTERS   NOT AVBL
$$

.............................NOTES.............................
THIS IS AN AUTOMATED COLLECTIVE WITH MINIMAL QUALITY CONTROL.
PIMA CO DEQ SITES HAVE NONSTANDARD WIND SENSOR HEIGHTS.
PIMA CO DEQ SITES DO NOT REPORT WIND GUSTS.
* INDICATES WIND SENSORS LOCATED AT 20 FEET INSTEAD OF 33 FEET.
..............................KEY..............................
SKY/WX - SKY CONDITION/WEATHER
TMP    - TEMPERATURE IN FAHRENHEIT
DP     - DEWPOINT IN FAHRENHEIT
RH     - RELATIVE HUMIDITY IN PERCENT
WIND   - DIRECTION AND SPEED IN MILES PER HOUR (MPH)
VRB    - VARIABLE WIND DIRECTION
PRES   - MEAN SEA LEVEL PRESSURE IN INCHES OF MERCURY
         F - FALLING PRESSURE   R - RISING PRESSURE
         S - STEADY PRESSURE
VSB    - VISIBILITY IN MILES
HX     - HEAT INDEX IN FAHRENHEIT
WCI    - WIND CHILL INDEX IN FAHRENHEIT
N/A    - NOT AVAILABLE
AFB    - AIR FORCE BASE
         DAVIS-MONTHAN IS DAVIS-MONTHAN AIR FORCE BASE
CYN    - CANYON
MTNS   - MOUNTAINS
NCA    - NATIONAL CONSERVATION AREA
NR     - NEAR
VLY    - VALLEY
CONTL  - CONTINENTAL
PIMA CO DEQ - PIMA COUNTY DEPT OF ENVIRONMENTAL QUALITY



USA.gov is the U.S. government's official web portal to all federal, state and local government web resources and services.